owner,sensor,date,latitude,longitude,vertical_datum,direction_of_sea_water_velocity,sea_water_speed,upward_sea_water_velocity,qcFlag 
TABS,ioos:station:wmo:42046:1,2014-01-01T00:00:00Z,27.8903,-94.0367,2.0,294.7850896,4.174517936,-99999.0,'11133222,11111222,99999999' 
TABS,ioos:station:wmo:42046:1,2014-01-01T00:30:00Z,27.8903,-94.0367,2.0,291.6583389,11.86782625,-99999.0,'11111222,11111222,99999999' 
TABS,ioos:station:wmo:42046:1,2014-01-01T01:00:00Z,27.8903,-94.0367,2.0,317.9943709,11.37165775,-99999.0,'11111222,11111222,99999999' 
TABS,ioos:station:wmo:42046:1,2014-01-01T01:30:00Z,27.8903,-94.0367,2.0,331.7687902,7.842971376,-99999.0,'11133222,11111222,99999999' 
TABS,ioos:station:wmo:42046:1,2014-01-01T02:00:00Z,27.8903,-94.0367,2.0,305.6838732,5.023076746,-99999.0,'11133222,11111222,99999999' 
TABS,ioos:station:wmo:42046:1,2014-01-01T02:30:00Z,27.8903,-94.0367,2.0,316.7450743,8.128425432,-99999.0,'11133222,11111222,99999999' 
TABS,ioos:station:wmo:42046:1,2014-01-01T03:00:00Z,27.8903,-94.0367,2.0,316.7507414,8.333606662,-99999.0,'11133222,11111222,99999999' 
TABS,ioos:station:wmo:42046:1,2014-01-01T03:30:00Z,27.8903,-94.0367,2.0,311.040379,8.498499868,-99999.0,'11133222,11111222,99999999' 
TABS,ioos:station:wmo:42046:1,2014-01-01T04:00:00Z,27.8903,-94.0367,2.0,307.8211613,9.279277989,-99999.0,'11133222,11111222,99999999' 
TABS,ioos:station:wmo:42046:1,2014-01-01T04:30:00Z,27.8903,-94.0367,2.0,290.0564688,4.694699138,-99999.0,'11133222,11111222,99999999' 
TABS,ioos:station:wmo:42046:1,2014-01-01T05:00:00Z,27.8903,-94.0367,2.0,330.7976904,8.649329454,-99999.0,'11133222,11111222,99999999' 
TABS,ioos:station:wmo:42046:1,2014-01-01T05:30:00Z,27.8903,-94.0367,2.0,334.3615279,9.128822487,-99999.0,'11133222,11111222,99999999' 
TABS,ioos:station:wmo:42046:1,2014-01-01T06:00:00Z,27.8903,-94.0367,2.0,339.5389298,8.496028484,-99999.0,'11133222,11111222,99999999' 
TABS,ioos:station:wmo:42046:1,2014-01-01T06:30:00Z,27.8903,-94.0367,2.0,319.8514204,7.692593841,-99999.0,'11133222,11111222,99999999' 
TABS,ioos:station:wmo:42046:1,2014-01-01T07:00:00Z,27.8903,-94.0367,2.0,318.922249,8.994248162,-99999.0,'11133222,11111222,99999999' 
TABS,ioos:station:wmo:42046:1,2014-01-01T07:30:00Z,27.8903,-94.0367,2.0,297.7188577,8.664283006,-99999.0,'11133222,11111222,99999999' 
TABS,ioos:station:wmo:42046:1,2014-01-01T08:00:00Z,27.8903,-94.0367,2.0,318.996295,7.407273452,-99999.0,'11133222,11111222,99999999' 
TABS,ioos:station:wmo:42046:1,2014-01-01T08:30:00Z,27.8903,-94.0367,2.0,322.8693728,6.146063781,-99999.0,'11133222,11111222,99999999' 
TABS,ioos:station:wmo:42046:1,2014-01-01T09:00:00Z,27.8903,-94.0367,2.0,283.3381572,7.759291205,-99999.0,'11133222,11111222,99999999' 
TABS,ioos:station:wmo:42046:1,2014-01-01T09:30:00Z,27.8903,-94.0367,2.0,291.4665702,4.126221031,-99999.0,'11133222,11111222,99999999' 
TABS,ioos:station:wmo:42046:1,2014-01-01T10:00:00Z,27.8903,-94.0367,2.0,269.7754773,7.67005867,-99999.0,'11133222,11111222,99999999' 
TABS,ioos:station:wmo:42046:1,2014-01-01T10:30:00Z,27.8903,-94.0367,2.0,290.8887275,8.273777855,-99999.0,'11133222,11111222,99999999' 
TABS,ioos:station:wmo:42046:1,2014-01-01T11:00:00Z,27.8903,-94.0367,2.0,294.6019686,6.91798381,-99999.0,'11133222,11111222,99999999' 
TABS,ioos:station:wmo:42046:1,2014-01-01T11:30:00Z,27.8903,-94.0367,2.0,281.6607975,8.015416396,-99999.0,'11133222,11111222,99999999' 
TABS,ioos:station:wmo:42046:1,2014-01-01T12:00:00Z,27.8903,-94.0367,2.0,276.2112969,8.318828042,-99999.0,'11133222,11111222,99999999' 
TABS,ioos:station:wmo:42046:1,2014-01-01T12:30:00Z,27.8903,-94.0367,2.0,283.5556288,10.11166653,-99999.0,'11111222,11111222,99999999' 
TABS,ioos:station:wmo:42046:1,2014-01-01T13:00:00Z,27.8903,-94.0367,2.0,307.8937095,13.66017935,-99999.0,'11111222,11111222,99999999' 
TABS,ioos:station:wmo:42046:1,2014-01-01T13:30:00Z,27.8903,-94.0367,2.0,294.2395543,15.97868893,-99999.0,'11111222,11111222,99999999' 
TABS,ioos:station:wmo:42046:1,2014-01-01T14:00:00Z,27.8903,-94.0367,2.0,309.7651843,14.41439558,-99999.0,'11111222,11111222,99999999' 
TABS,ioos:station:wmo:42046:1,2014-01-01T14:30:00Z,27.8903,-94.0367,2.0,301.2245819,10.18540623,-99999.0,'11111222,11111222,99999999' 
TABS,ioos:station:wmo:42046:1,2014-01-01T15:00:00Z,27.8903,-94.0367,2.0,319.9367154,14.21607892,-99999.0,'11111222,11111222,99999999' 
TABS,ioos:station:wmo:42046:1,2014-01-01T15:30:00Z,27.8903,-94.0367,2.0,313.6841265,12.92932326,-99999.0,'11111222,11111222,99999999' 
TABS,ioos:station:wmo:42046:1,2014-01-01T16:00:00Z,27.8903,-94.0367,2.0,292.9588558,16.92029551,-99999.0,'11111222,11111222,99999999' 
TABS,ioos:station:wmo:42046:1,2014-01-01T16:30:00Z,27.8903,-94.0367,2.0,310.1766688,16.81799631,-99999.0,'11111222,11111222,99999999' 
TABS,ioos:station:wmo:42046:1,2014-01-01T17:00:00Z,27.8903,-94.0367,2.0,315.5680696,16.41275419,-99999.0,'11111222,11111222,99999999' 
TABS,ioos:station:wmo:42046:1,2014-01-01T17:30:00Z,27.8903,-94.0367,2.0,315.3466582,16.37689226,-99999.0,'11111222,11111222,99999999' 
TABS,ioos:station:wmo:42046:1,2014-01-01T18:00:00Z,27.8903,-94.0367,2.0,316.3118924,20.08002241,-99999.0,'11111222,11111222,99999999' 
TABS,ioos:station:wmo:42046:1,2014-01-01T18:30:00Z,27.8903,-94.0367,2.0,322.6805266,17.83054963,-99999.0,'11111222,11111222,99999999' 
TABS,ioos:station:wmo:42046:1,2014-01-01T19:00:00Z,27.8903,-94.0367,2.0,314.681849,13.99385937,-99999.0,'11111222,11111222,99999999' 
TABS,ioos:station:wmo:42046:1,2014-01-01T19:30:00Z,27.8903,-94.0367,2.0,306.7428574,9.896024454,-99999.0,'11133222,11111222,99999999' 
TABS,ioos:station:wmo:42046:1,2014-01-01T20:00:00Z,27.8903,-94.0367,2.0,329.7625972,8.796868761,-99999.0,'11133222,11111222,99999999' 
TABS,ioos:station:wmo:42046:1,2014-01-01T20:30:00Z,27.8903,-94.0367,2.0,322.3707665,8.598755724,-99999.0,'11133222,11111222,99999999' 
TABS,ioos:station:wmo:42046:1,2014-01-01T21:00:00Z,27.8903,-94.0367,2.0,324.6232874,10.36351774,-99999.0,'11111222,11111222,99999999' 
TABS,ioos:station:wmo:42046:1,2014-01-01T21:30:00Z,27.8903,-94.0367,2.0,312.9755553,8.405676653,-99999.0,'11133222,11111222,99999999' 
TABS,ioos:station:wmo:42046:1,2014-01-01T22:00:00Z,27.8903,-94.0367,2.0,325.4080027,4.579617888,-99999.0,'11133222,11111222,99999999' 
TABS,ioos:station:wmo:42046:1,2014-01-01T22:30:00Z,27.8903,-94.0367,2.0,295.002866,7.216238632,-99999.0,'11133222,11111222,99999999' 
TABS,ioos:station:wmo:42046:1,2014-01-01T23:00:00Z,27.8903,-94.0367,2.0,292.1492129,6.737150733,-99999.0,'11133222,11111222,99999999' 
TABS,ioos:station:wmo:42046:1,2014-01-01T23:30:00Z,27.8903,-94.0367,2.0,287.4016737,5.784747185,-99999.0,'11133222,11111222,99999999' 
TABS,ioos:station:wmo:42046:1,2014-01-02T00:00:00Z,27.8903,-94.0367,2.0,306.9435004,4.692003836,-99999.0,'11133222,11111222,99999999' 
TABS,ioos:station:wmo:42046:1,2014-01-02T00:30:00Z,27.8903,-94.0367,2.0,287.9722079,5.477243832,-99999.0,'11133222,11111222,99999999' 
TABS,ioos:station:wmo:42046:1,2014-01-02T01:00:00Z,27.8903,-94.0367,2.0,274.1900632,5.885728502,-99999.0,'11133222,11111222,99999999' 
TABS,ioos:station:wmo:42046:1,2014-01-02T01:30:00Z,27.8903,-94.0367,2.0,255.004535,6.95689586,-99999.0,'11133222,11111222,99999999' 
TABS,ioos:station:wmo:42046:1,2014-01-02T02:00:00Z,27.8903,-94.0367,2.0,279.0235295,4.718389556,-99999.0,'11133222,11111222,99999999' 
TABS,ioos:station:wmo:42046:1,2014-01-02T02:30:00Z,27.8903,-94.0367,2.0,257.0255067,6.280326425,-99999.0,'11133222,11111222,99999999' 
TABS,ioos:station:wmo:42046:1,2014-01-02T03:00:00Z,27.8903,-94.0367,2.0,268.2538081,6.893199547,-99999.0,'11133222,11111222,99999999' 
TABS,ioos:station:wmo:42046:1,2014-01-02T03:30:00Z,27.8903,-94.0367,2.0,294.3110866,8.185871976,-99999.0,'11133222,11111222,99999999' 
TABS,ioos:station:wmo:42046:1,2014-01-02T04:00:00Z,27.8903,-94.0367,2.0,320.5126088,8.538910938,-99999.0,'11133222,11111222,99999999' 
TABS,ioos:station:wmo:42046:1,2014-01-02T04:30:00Z,27.8903,-94.0367,2.0,334.2001916,6.364416705,-99999.0,'11133222,11111222,99999999' 
TABS,ioos:station:wmo:42046:1,2014-01-02T05:00:00Z,27.8903,-94.0367,2.0,288.6231805,4.822499352,-99999.0,'11133222,11111222,99999999' 
TABS,ioos:station:wmo:42046:1,2014-01-02T05:30:00Z,27.8903,-94.0367,2.0,337.0833614,4.006207683,-99999.0,'11133222,11111222,99999999' 
TABS,ioos:station:wmo:42046:1,2014-01-02T06:00:00Z,27.8903,-94.0367,2.0,324.2344611,4.670867157,-99999.0,'11133222,11111222,99999999' 
TABS,ioos:station:wmo:42046:1,2014-01-02T06:30:00Z,27.8903,-94.0367,2.0,321.4263287,6.254766183,-99999.0,'11133222,11111222,99999999' 
TABS,ioos:station:wmo:42046:1,2014-01-02T07:00:00Z,27.8903,-94.0367,2.0,287.7161722,2.267531698,-99999.0,'11133222,11111222,99999999' 
TABS,ioos:station:wmo:42046:1,2014-01-02T07:30:00Z,27.8903,-94.0367,2.0,316.1954618,5.085204027,-99999.0,'11133222,11111222,99999999' 
TABS,ioos:station:wmo:42046:1,2014-01-02T08:00:00Z,27.8903,-94.0367,2.0,335.1341704,5.279441258,-99999.0,'11133222,11111222,99999999' 
TABS,ioos:station:wmo:42046:1,2014-01-02T08:30:00Z,27.8903,-94.0367,2.0,341.7373632,4.212172836,-99999.0,'11133222,11111222,99999999' 
TABS,ioos:station:wmo:42046:1,2014-01-02T09:00:00Z,27.8903,-94.0367,2.0,212.2106419,2.363810483,-99999.0,'11133222,11111222,99999999' 
TABS,ioos:station:wmo:42046:1,2014-01-02T09:30:00Z,27.8903,-94.0367,2.0,173.4483205,3.593466293,-99999.0,'11133222,11111222,99999999' 
TABS,ioos:station:wmo:42046:1,2014-01-02T10:00:00Z,27.8903,-94.0367,2.0,221.9623556,5.20454609,-99999.0,'11133222,11111222,99999999' 
TABS,ioos:station:wmo:42046:1,2014-01-02T10:30:00Z,27.8903,-94.0367,2.0,229.3983794,4.701967673,-99999.0,'11133222,11111222,99999999' 
TABS,ioos:station:wmo:42046:1,2014-01-02T11:00:00Z,27.8903,-94.0367,2.0,220.407483,10.59819796,-99999.0,'11111222,11111222,99999999' 
TABS,ioos:station:wmo:42046:1,2014-01-02T11:30:00Z,27.8903,-94.0367,2.0,159.8767643,10.84183103,-99999.0,'11111222,11111222,99999999' 
TABS,ioos:station:wmo:42046:1,2014-01-02T12:00:00Z,27.8903,-94.0367,2.0,207.8707223,10.2035925,-99999.0,'11111222,11111222,99999999' 
TABS,ioos:station:wmo:42046:1,2014-01-02T12:30:00Z,27.8903,-94.0367,2.0,192.559675,17.98028365,-99999.0,'11111222,11111222,99999999' 
TABS,ioos:station:wmo:42046:1,2014-01-02T13:00:00Z,27.8903,-94.0367,2.0,196.0437536,13.5684966,-99999.0,'11111222,11111222,99999999' 
TABS,ioos:station:wmo:42046:1,2014-01-02T13:30:00Z,27.8903,-94.0367,2.0,195.2138225,9.793232357,-99999.0,'11133222,11111222,99999999' 
TABS,ioos:station:wmo:42046:1,2014-01-02T14:00:00Z,27.8903,-94.0367,2.0,204.0463534,23.5103658,-99999.0,'11111222,11111222,99999999' 
TABS,ioos:station:wmo:42046:1,2014-01-02T14:30:00Z,27.8903,-94.0367,2.0,212.9436358,16.82548365,-99999.0,'11111222,11111222,99999999' 
TABS,ioos:station:wmo:42046:1,2014-01-02T15:00:00Z,27.8903,-94.0367,2.0,191.776569,13.7187791,-99999.0,'11111222,11111222,99999999' 
TABS,ioos:station:wmo:42046:1,2014-01-02T15:30:00Z,27.8903,-94.0367,2.0,179.2652702,10.9208974,-99999.0,'11111222,11111222,99999999' 
TABS,ioos:station:wmo:42046:1,2014-01-02T16:00:00Z,27.8903,-94.0367,2.0,206.7394599,16.13554152,-99999.0,'11111222,11111222,99999999' 
TABS,ioos:station:wmo:42046:1,2014-01-02T16:30:00Z,27.8903,-94.0367,2.0,240.7113683,19.76680298,-99999.0,'11111222,11111222,99999999' 
TABS,ioos:station:wmo:42046:1,2014-01-02T17:00:00Z,27.8903,-94.0367,2.0,225.2423141,11.6885799,-99999.0,'11111222,11111222,99999999' 
TABS,ioos:station:wmo:42046:1,2014-01-02T17:30:00Z,27.8903,-94.0367,2.0,260.5705363,14.16133115,-99999.0,'11111222,11111222,99999999' 
TABS,ioos:station:wmo:42046:1,2014-01-02T18:00:00Z,27.8903,-94.0367,2.0,221.3217858,8.708277671,-99999.0,'11133222,11111222,99999999' 
TABS,ioos:station:wmo:42046:1,2014-01-02T18:30:00Z,27.8903,-94.0367,2.0,236.9850704,15.52713753,-99999.0,'11111222,11111222,99999999' 
TABS,ioos:station:wmo:42046:1,2014-01-02T19:00:00Z,27.8903,-94.0367,2.0,243.1050855,13.2198525,-99999.0,'11111222,11111222,99999999' 
TABS,ioos:station:wmo:42046:1,2014-01-02T19:30:00Z,27.8903,-94.0367,2.0,291.9901083,7.344290299,-99999.0,'11133222,11111222,99999999' 
TABS,ioos:station:wmo:42046:1,2014-01-02T20:00:00Z,27.8903,-94.0367,2.0,224.3984028,4.716661955,-99999.0,'11133222,11111222,99999999' 
TABS,ioos:station:wmo:42046:1,2014-01-02T20:30:00Z,27.8903,-94.0367,2.0,116.0953631,2.728094573,-99999.0,'11133222,11111222,99999999' 
TABS,ioos:station:wmo:42046:1,2014-01-02T21:00:00Z,27.8903,-94.0367,2.0,199.3001226,5.2341666,-99999.0,'11133222,11111222,99999999' 
TABS,ioos:station:wmo:42046:1,2014-01-02T21:30:00Z,27.8903,-94.0367,2.0,143.0365487,4.906006523,-99999.0,'11133222,11111222,99999999' 
TABS,ioos:station:wmo:42046:1,2014-01-02T22:00:00Z,27.8903,-94.0367,2.0,136.6065465,11.60111202,-99999.0,'11111222,11111222,99999999' 
TABS,ioos:station:wmo:42046:1,2014-01-02T22:30:00Z,27.8903,-94.0367,2.0,162.1809423,7.940938232,-99999.0,'11133222,11111222,99999999' 
TABS,ioos:station:wmo:42046:1,2014-01-02T23:00:00Z,27.8903,-94.0367,2.0,166.9760026,10.29481909,-99999.0,'11111222,11111222,99999999' 
TABS,ioos:station:wmo:42046:1,2014-01-02T23:30:00Z,27.8903,-94.0367,2.0,135.1258191,6.43468725,-99999.0,'11133222,11111222,99999999' 
TABS,ioos:station:wmo:42046:1,2014-01-03T00:00:00Z,27.8903,-94.0367,2.0,171.9512711,10.92763927,-99999.0,'11111222,11111222,99999999' 
TABS,ioos:station:wmo:42046:1,2014-01-03T00:30:00Z,27.8903,-94.0367,2.0,217.4319314,8.966431843,-99999.0,'11133222,11111222,99999999' 
TABS,ioos:station:wmo:42046:1,2014-01-03T01:00:00Z,27.8903,-94.0367,2.0,163.8693637,11.48202944,-99999.0,'11111222,11111222,99999999' 
TABS,ioos:station:wmo:42046:1,2014-01-03T01:30:00Z,27.8903,-94.0367,2.0,171.9377843,15.47292151,-99999.0,'11111222,11111222,99999999' 
TABS,ioos:station:wmo:42046:1,2014-01-03T02:00:00Z,27.8903,-94.0367,2.0,201.4726754,13.60426404,-99999.0,'11111222,11111222,99999999' 
TABS,ioos:station:wmo:42046:1,2014-01-03T02:30:00Z,27.8903,-94.0367,2.0,176.2523832,10.86322696,-99999.0,'11111222,11111222,99999999' 
TABS,ioos:station:wmo:42046:1,2014-01-03T03:00:00Z,27.8903,-94.0367,2.0,195.4065818,9.937102193,-99999.0,'11133222,11111222,99999999' 
TABS,ioos:station:wmo:42046:1,2014-01-03T03:30:00Z,27.8903,-94.0367,2.0,266.2012927,4.830610727,-99999.0,'11133222,11111222,99999999' 
TABS,ioos:station:wmo:42046:1,2014-01-03T04:00:00Z,27.8903,-94.0367,2.0,195.1844848,7.139257664,-99999.0,'11133222,11111222,99999999' 
TABS,ioos:station:wmo:42046:1,2014-01-03T04:30:00Z,27.8903,-94.0367,2.0,197.1521712,10.17243334,-99999.0,'11111222,11111222,99999999' 
TABS,ioos:station:wmo:42046:1,2014-01-03T05:00:00Z,27.8903,-94.0367,2.0,199.133388,7.779781488,-99999.0,'11133222,11111222,99999999' 
TABS,ioos:station:wmo:42046:1,2014-01-03T05:30:00Z,27.8903,-94.0367,2.0,195.8259066,1.320037878,-99999.0,'11133222,11111222,99999999' 
TABS,ioos:station:wmo:42046:1,2014-01-03T06:00:00Z,27.8903,-94.0367,2.0,197.1024785,4.488485268,-99999.0,'11133222,11111222,99999999' 
TABS,ioos:station:wmo:42046:1,2014-01-03T06:30:00Z,27.8903,-94.0367,2.0,153.8144159,9.449830686,-99999.0,'11133222,11111222,99999999' 
TABS,ioos:station:wmo:42046:1,2014-01-03T07:00:00Z,27.8903,-94.0367,2.0,219.7715047,6.518358689,-99999.0,'11133222,11111222,99999999' 
TABS,ioos:station:wmo:42046:1,2014-01-03T07:30:00Z,27.8903,-94.0367,2.0,235.7089091,11.11125555,-99999.0,'11111222,11111222,99999999' 
TABS,ioos:station:wmo:42046:1,2014-01-03T08:00:00Z,27.8903,-94.0367,2.0,236.5257087,6.617620418,-99999.0,'11133222,11111222,99999999' 
TABS,ioos:station:wmo:42046:1,2014-01-03T08:30:00Z,27.8903,-94.0367,2.0,217.8436217,6.470935017,-99999.0,'11133222,11111222,99999999' 
TABS,ioos:station:wmo:42046:1,2014-01-03T09:00:00Z,27.8903,-94.0367,2.0,240.6768711,8.923300959,-99999.0,'11133222,11111222,99999999' 
TABS,ioos:station:wmo:42046:1,2014-01-03T09:30:00Z,27.8903,-94.0367,2.0,224.3821504,5.904684581,-99999.0,'11133222,11111222,99999999' 
TABS,ioos:station:wmo:42046:1,2014-01-03T10:00:00Z,27.8903,-94.0367,2.0,192.7703854,12.07879547,-99999.0,'11111222,11111222,99999999' 
TABS,ioos:station:wmo:42046:1,2014-01-03T10:30:00Z,27.8903,-94.0367,2.0,209.6635608,4.384632254,-99999.0,'11133222,11111222,99999999' 
TABS,ioos:station:wmo:42046:1,2014-01-03T11:00:00Z,27.8903,-94.0367,2.0,259.8346156,5.496271463,-99999.0,'11133222,11111222,99999999' 
TABS,ioos:station:wmo:42046:1,2014-01-03T11:30:00Z,27.8903,-94.0367,2.0,221.6773787,6.466753436,-99999.0,'11133222,11111222,99999999' 
TABS,ioos:station:wmo:42046:1,2014-01-03T12:00:00Z,27.8903,-94.0367,2.0,211.5197246,6.006163501,-99999.0,'11133222,11111222,99999999' 
TABS,ioos:station:wmo:42046:1,2014-01-03T12:30:00Z,27.8903,-94.0367,2.0,204.426101,10.78536045,-99999.0,'11111222,11111222,99999999' 
TABS,ioos:station:wmo:42046:1,2014-01-03T13:00:00Z,27.8903,-94.0367,2.0,205.2065257,10.75403645,-99999.0,'11111222,11111222,99999999' 
TABS,ioos:station:wmo:42046:1,2014-01-03T13:30:00Z,27.8903,-94.0367,2.0,201.2131228,9.589812303,-99999.0,'11133222,11111222,99999999' 
TABS,ioos:station:wmo:42046:1,2014-01-03T14:00:00Z,27.8903,-94.0367,2.0,274.4527779,11.46459768,-99999.0,'11111222,11111222,99999999' 
TABS,ioos:station:wmo:42046:1,2014-01-03T14:30:00Z,27.8903,-94.0367,2.0,254.8767998,12.53406957,-99999.0,'11111222,11111222,99999999' 
TABS,ioos:station:wmo:42046:1,2014-01-03T15:00:00Z,27.8903,-94.0367,2.0,268.386952,8.883518447,-99999.0,'11133222,11111222,99999999' 
TABS,ioos:station:wmo:42046:1,2014-01-03T15:30:00Z,27.8903,-94.0367,2.0,277.3562859,5.233067934,-99999.0,'11133222,11111222,99999999' 
TABS,ioos:station:wmo:42046:1,2014-01-03T16:00:00Z,27.8903,-94.0367,2.0,273.5922652,16.12166865,-99999.0,'11111222,11111222,99999999' 
TABS,ioos:station:wmo:42046:1,2014-01-03T16:30:00Z,27.8903,-94.0367,2.0,271.8400133,11.52594031,-99999.0,'11111222,11111222,99999999' 
TABS,ioos:station:wmo:42046:1,2014-01-03T17:00:00Z,27.8903,-94.0367,2.0,299.1224784,7.417715282,-99999.0,'11133222,11111222,99999999' 
TABS,ioos:station:wmo:42046:1,2014-01-03T17:30:00Z,27.8903,-94.0367,2.0,294.0952883,13.17821308,-99999.0,'11111222,11111222,99999999' 
TABS,ioos:station:wmo:42046:1,2014-01-03T18:00:00Z,27.8903,-94.0367,2.0,293.2174935,12.17604616,-99999.0,'11111222,11111222,99999999' 
TABS,ioos:station:wmo:42046:1,2014-01-03T18:30:00Z,27.8903,-94.0367,2.0,302.3358302,8.095338165,-99999.0,'11133222,11111222,99999999' 
TABS,ioos:station:wmo:42046:1,2014-01-03T19:00:00Z,27.8903,-94.0367,2.0,315.275207,10.31680668,-99999.0,'11111222,11111222,99999999' 
TABS,ioos:station:wmo:42046:1,2014-01-03T19:30:00Z,27.8903,-94.0367,2.0,294.9372899,6.925662423,-99999.0,'11133222,11111222,99999999' 
TABS,ioos:station:wmo:42046:1,2014-01-03T20:00:00Z,27.8903,-94.0367,2.0,336.6049057,8.411539693,-99999.0,'11133222,11111222,99999999' 
TABS,ioos:station:wmo:42046:1,2014-01-03T20:30:00Z,27.8903,-94.0367,2.0,304.9650782,8.602755373,-99999.0,'11133222,11111222,99999999' 
TABS,ioos:station:wmo:42046:1,2014-01-03T21:00:00Z,27.8903,-94.0367,2.0,312.6855831,12.0801697,-99999.0,'11111222,11111222,99999999' 
TABS,ioos:station:wmo:42046:1,2014-01-03T21:30:00Z,27.8903,-94.0367,2.0,303.7078725,9.099857142,-99999.0,'11133222,11111222,99999999' 
TABS,ioos:station:wmo:42046:1,2014-01-03T22:00:00Z,27.8903,-94.0367,2.0,310.1299753,8.828284091,-99999.0,'11133222,11111222,99999999' 
TABS,ioos:station:wmo:42046:1,2014-01-03T22:30:00Z,27.8903,-94.0367,2.0,286.2485642,5.718400126,-99999.0,'11133222,11111222,99999999' 
TABS,ioos:station:wmo:42046:1,2014-01-03T23:00:00Z,27.8903,-94.0367,2.0,290.0893006,4.163291967,-99999.0,'11133222,11111222,99999999' 
TABS,ioos:station:wmo:42046:1,2014-01-03T23:30:00Z,27.8903,-94.0367,2.0,317.3140328,7.006068798,-99999.0,'11133222,11111222,99999999' 
TABS,ioos:station:wmo:42046:1,2014-01-04T00:00:00Z,27.8903,-94.0367,2.0,304.2037978,4.64302703,-99999.0,'11133222,11111222,99999999' 
TABS,ioos:station:wmo:42046:1,2014-01-04T00:30:00Z,27.8903,-94.0367,2.0,302.022502,3.620952913,-99999.0,'11133222,11111222,99999999' 
TABS,ioos:station:wmo:42046:1,2014-01-04T01:00:00Z,27.8903,-94.0367,2.0,234.7900461,6.902897942,-99999.0,'11133222,11111222,99999999' 
TABS,ioos:station:wmo:42046:1,2014-01-04T01:30:00Z,27.8903,-94.0367,2.0,341.0549492,6.745405844,-99999.0,'11133222,11111222,99999999' 
TABS,ioos:station:wmo:42046:1,2014-01-04T02:00:00Z,27.8903,-94.0367,2.0,292.9324677,1.411559421,-99999.0,'11133222,11111222,99999999' 
TABS,ioos:station:wmo:42046:1,2014-01-04T02:30:00Z,27.8903,-94.0367,2.0,256.8727468,5.195767508,-99999.0,'11133222,11111222,99999999' 
TABS,ioos:station:wmo:42046:1,2014-01-04T03:00:00Z,27.8903,-94.0367,2.0,280.668767,5.779904844,-99999.0,'11133222,11111222,99999999' 
TABS,ioos:station:wmo:42046:1,2014-01-04T03:30:00Z,27.8903,-94.0367,2.0,299.1484246,4.763192207,-99999.0,'11133222,11111222,99999999' 
TABS,ioos:station:wmo:42046:1,2014-01-04T04:00:00Z,27.8903,-94.0367,2.0,276.0444989,5.128508555,-99999.0,'11133222,11111222,99999999' 
TABS,ioos:station:wmo:42046:1,2014-01-04T04:30:00Z,27.8903,-94.0367,2.0,303.031327,3.375574025,-99999.0,'11133222,11111222,99999999' 
TABS,ioos:station:wmo:42046:1,2014-01-04T05:00:00Z,27.8903,-94.0367,2.0,301.3948913,7.755385226,-99999.0,'11133222,11111222,99999999' 
TABS,ioos:station:wmo:42046:1,2014-01-04T05:30:00Z,27.8903,-94.0367,2.0,324.9640966,4.250176467,-99999.0,'11133222,11111222,99999999' 
TABS,ioos:station:wmo:42046:1,2014-01-04T06:00:00Z,27.8903,-94.0367,2.0,337.4384235,5.316925804,-99999.0,'11133222,11111222,99999999' 
TABS,ioos:station:wmo:42046:1,2014-01-04T06:30:00Z,27.8903,-94.0367,2.0,340.8718966,4.180837237,-99999.0,'11133222,11111222,99999999' 
TABS,ioos:station:wmo:42046:1,2014-01-04T07:00:00Z,27.8903,-94.0367,2.0,16.50453325,4.787243466,-99999.0,'11133222,11111222,99999999' 
TABS,ioos:station:wmo:42046:1,2014-01-04T07:30:00Z,27.8903,-94.0367,2.0,353.157453,5.539458457,-99999.0,'11133222,11111222,99999999' 
TABS,ioos:station:wmo:42046:1,2014-01-04T08:00:00Z,27.8903,-94.0367,2.0,3.399916668,2.023561217,-99999.0,'11133222,11111222,99999999' 
TABS,ioos:station:wmo:42046:1,2014-01-04T08:30:00Z,27.8903,-94.0367,2.0,333.5566103,2.110852908,-99999.0,'11133222,11111222,99999999' 
TABS,ioos:station:wmo:42046:1,2014-01-04T09:00:00Z,27.8903,-94.0367,2.0,307.3206878,6.614204412,-99999.0,'11133222,11111222,99999999' 
TABS,ioos:station:wmo:42046:1,2014-01-04T09:30:00Z,27.8903,-94.0367,2.0,44.35345497,3.132682557,-99999.0,'11133222,11111222,99999999' 
TABS,ioos:station:wmo:42046:1,2014-01-04T10:00:00Z,27.8903,-94.0367,2.0,335.1009835,6.769202316,-99999.0,'11133222,11111222,99999999' 
TABS,ioos:station:wmo:42046:1,2014-01-04T10:30:00Z,27.8903,-94.0367,2.0,323.6488975,2.210090496,-99999.0,'11133222,11111222,99999999' 
TABS,ioos:station:wmo:42046:1,2014-01-04T11:00:00Z,27.8903,-94.0367,2.0,55.0560709,6.843865867,-99999.0,'11133222,11111222,99999999' 
TABS,ioos:station:wmo:42046:1,2014-01-04T11:30:00Z,27.8903,-94.0367,2.0,118.6239989,3.360743965,-99999.0,'11133222,11111222,99999999' 
TABS,ioos:station:wmo:42046:1,2014-01-04T12:00:00Z,27.8903,-94.0367,2.0,348.4996374,4.714657994,-99999.0,'11133222,11111222,99999999' 
TABS,ioos:station:wmo:42046:1,2014-01-04T12:30:00Z,27.8903,-94.0367,2.0,67.93853098,4.49944441,-99999.0,'11133222,11111222,99999999' 
TABS,ioos:station:wmo:42046:1,2014-01-04T13:00:00Z,27.8903,-94.0367,2.0,20.67458687,1.699441085,-99999.0,'11133222,11111222,99999999' 
TABS,ioos:station:wmo:42046:1,2014-01-04T13:30:00Z,27.8903,-94.0367,2.0,59.97154877,3.257192042,-99999.0,'11133222,11111222,99999999' 
TABS,ioos:station:wmo:42046:1,2014-01-04T14:00:00Z,27.8903,-94.0367,2.0,15.43122634,4.284448623,-99999.0,'11133222,11111222,99999999' 
TABS,ioos:station:wmo:42046:1,2014-01-04T14:30:00Z,27.8903,-94.0367,2.0,99.35448002,4.368088827,-99999.0,'11133222,11111222,99999999' 
TABS,ioos:station:wmo:42046:1,2014-01-04T15:00:00Z,27.8903,-94.0367,2.0,88.55435996,6.342018606,-99999.0,'11133222,11111222,99999999' 
TABS,ioos:station:wmo:42046:1,2014-01-04T15:30:00Z,27.8903,-94.0367,2.0,65.58351656,10.37817903,-99999.0,'11111222,11111222,99999999' 
TABS,ioos:station:wmo:42046:1,2014-01-04T16:00:00Z,27.8903,-94.0367,2.0,92.50710629,7.086783473,-99999.0,'11133222,11111222,99999999' 